Wind_Speed
27 27 28 28 27 27 26 25 24 23 21 18 18 19 19 18 16 17 20 21 21 20 19 19 18 18 17 15 15 15 14 13 11 11 11 11 11 11 12 12 12 13 13 14 15 15 15 15 14 13 13 11 9 9 7 5 6 6 5 5 6 7 8 8 7 5 6 6 7 9 10 9 9 8 8 9 9 9 9 10 9 9 9 9 9
27 28 28 28 28 28 28 27 26 25 24 21 19 20 20 19 18 18 20 22 21 21 20 20 20 19 18 17 16 16 16 14 13 12 12 12 12 12 12 12 12 13 13 14 14 15 15 15 15 13 12 11 9 10 8 6 8 7 4 4 4 4 5 7 6 5 7 8 7 7 7 7 7 7 8 9 9 9 10 11 11 11 11 11 11
28 28 29 29 29 29 29 29 28 27 26 24 21 20 21 20 19 18 21 22 23 23 22 21 21 21 20 19 18 18 17 16 14 13 13 13 13 12 12 12 13 13 13 13 14 15 15 15 15 13 12 11 10 9 8 8 9 6 6 6 4 4 3 4 5 6 9 11 9 6 5 6 7 8 7 8 8 8 10 12 13 13 13 14 15
26 28 29 30 30 30 30 30 30 28 27 26 23 21 22 21 20 20 21 23 24 24 23 23 22 22 22 21 20 19 19 18 16 15 14 14 14 13 13 13 13 13 13 13 14 15 15 15 15 15 14 12 12 9 7 10 10 6 7 7 5 5 4 4 5 5 8 9 8 7 6 6 7 8 7 8 8 8 9 11 12 12 13 17 17
21 23 25 28 29 28 29 29 29 28 27 26 25 23 22 22 22 21 22 25 26 26 25 25 24 24 23 23 22 21 20 19 18 17 16 15 15 14 14 14 13 13 13 13 14 15 15 16 16 16 14 13 13 10 9 11 11 9 8 6 6 6 5 6 7 6 6 6 6 6 6 7 8 7 7 9 9 8 9 10 10 10 12 15 16
19 20 21 23 24 25 25 26 26 26 26 26 26 24 24 24 24 23 23 25 26 27 27 27 26 26 25 24 24 23 22 21 20 20 18 17 17 16 16 15 14 14 14 14 15 15 16 17 16 15 15 14 13 12 13 12 11 10 9 8 7 7 6 7 7 5 6 5 5 6 6 8 9 7 8 9 10 10 9 9 9 9 9 10 12
18 19 19 20 21 22 22 22 23 24 25 26 27 26 26 25 24 24 24 25 26 28 28 28 28 28 27 26 25 25 24 23 23 22 20 19 19 18 18 17 16 15 15 15 15 15 16 16 16 16 16 16 15 16 15 14 12 11 11 11 9 8 6 6 6 6 9 8 6 6 6 7 8 7 7 8 9 10 8 8 8 8 7 8 9
19 19 19 20 20 20 20 20 21 23 24 26 27 27 27 25 24 23 23 24 26 28 29 30 29 29 29 28 27 26 26 25 25 24 23 22 21 21 20 19 18 17 16 16 15 16 16 16 16 16 17 17 18 19 18 18 17 15 15 13 12 11 9 7 7 7 9 8 7 7 6 7 7 7 8 8 8 8 8 9 9 8 8 8 8
19 19 20 20 20 20 20 20 21 22 24 25 26 28 28 25 23 23 23 24 25 27 29 30 31 31 30 30 29 29 28 27 27 26 25 25 24 23 22 21 20 19 18 17 17 17 17 17 16 16 18 18 19 20 20 20 19 19 19 16 15 14 10 10 10 9 11 10 8 8 9 10 11 11 10 9 7 7 8 8 8 8 8 8 7
18 19 20 20 21 21 21 22 22 23 24 26 26 28 28 26 24 24 25 25 25 26 27 29 31 32 32 31 31 31 30 29 29 29 28 28 27 26 25 24 22 21 20 19 18 18 17 17 17 17 18 18 20 20 20 20 20 20 19 18 17 14 13 15 14 13 16 15 13 11 12 14 15 13 11 10 8 8 8 7 7 7 7 7 7
17 18 19 20 20 21 21 22 23 24 25 26 27 28 28 28 27 27 27 27 27 27 27 27 29 31 32 32 32 32 32 31 31 32 31 30 29 29 28 26 24 22 22 21 20 19 19 18 18 18 18 19 20 20 20 21 21 20 19 19 17 12 14 19 18 18 19 16 14 12 12 13 14 13 11 10 9 9 8 6 6 6 6 7 7
13 15 17 19 20 21 22 22 23 24 25 26 26 26 26 26 27 28 29 29 28 28 28 28 29 30 32 32 33 33 34 34 34 34 33 32 32 32 30 28 27 26 25 23 22 21 20 20 19 19 19 20 20 21 21 22 22 21 20 18 16 13 15 17 17 19 22 20 14 11 10 11 11 11 10 10 10 10 10 8 7 7 7 7 7
11 12 13 14 16 17 19 21 22 23 25 25 25 25 24 25 26 28 29 29 29 29 28 29 29 31 32 33 34 35 36 36 36 36 35 35 35 34 32 31 30 28 27 26 24 23 22 21 21 20 20 20 21 21 22 22 22 22 22 20 17 15 16 16 15 15 17 17 13 10 9 9 9 10 10 10 10 11 11 10 10 9 9 9 9
14 14 14 14 14 15 16 18 20 22 24 25 24 24 24 24 26 28 29 30 29 29 29 29 30 31 32 33 34 36 38 38 38 38 38 38 37 36 34 34 33 31 29 29 27 26 24 23 22 21 21 21 22 22 23 23 23 23 22 21 20 18 17 18 16 13 12 12 10 8 8 8 8 9 9 10 10 10 11 11 11 10 10 10 10
18 19 19 19 19 19 18 17 17 18 20 22 23 24 24 25 26 27 28 30 30 29 30 30 30 30 31 32 32 32 34 37 39 40 40 39 39 38 37 36 35 34 33 32 30 28 26 25 24 23 23 22 22 23 23 24 24 24 23 23 22 20 19 19 18 15 13 12 10 9 9 10 10 11 11 10 10 10 11 10 10 11 11 11 11
16 18 20 22 23 23 23 21 19 17 17 19 21 22 23 24 25 26 28 30 30 30 30 30 31 30 30 30 28 27 29 34 38 38 39 40 40 40 39 38 37 36 36 35 33 31 29 27 27 25 24 24 23 23 24 25 25 25 24 24 24 23 21 21 19 17 15 14 12 11 11 12 13 13 13 11 11 11 10 10 11 11 11 11 10
7 10 14 17 20 22 24 24 24 22 20 19 19 19 21 22 23 25 27 28 29 30 30 30 31 32 32 30 26 24 25 29 32 32 33 36 38 39 39 39 39 38 38 37 35 33 32 31 29 27 26 25 25 24 24 25 25 25 25 24 25 25 24 24 22 20 18 16 14 13 14 14 13 13 14 13 12 12 11 11 11 11 11 10 9
2 4 6 9 12 16 19 21 23 23 23 22 21 20 20 20 21 22 24 25 27 29 30 30 31 32 34 35 33 30 26 24 25 26 28 30 31 33 36 38 39 40 39 38 37 36 35 33 31 29 28 27 26 25 25 25 26 26 26 25 25 25 26 27 27 24 22 19 16 15 15 15 13 13 14 14 13 13 12 11 11 11 10 10 9
3 2 2 4 6 9 11 14 17 20 22 23 23 23 23 22 21 21 21 22 23 27 29 29 31 33 34 36 38 39 37 33 29 27 26 27 28 28 30 33 36 39 39 38 37 37 36 35 33 31 30 29 27 26 26 26 26 26 26 26 26 26 27 29 30 30 28 26 23 20 18 16 14 14 15 16 15 15 13 12 12 11 10 10 10
9 8 6 4 4 5 7 9 11 14 17 19 21 22 24 24 23 22 22 22 22 25 27 27 30 33 33 35 37 39 41 42 40 36 31 31 33 32 31 31 33 36 35 35 35 35 35 35 34 33 31 30 29 28 27 27 27 27 27 27 26 27 28 30 33 34 33 32 27 23 22 20 16 16 16 17 16 16 14 13 12 11 10 10 10
12 12 11 9 7 6 6 7 8 10 12 15 17 19 21 23 24 24 23 23 23 23 25 26 29 31 32 35 36 37 39 41 43 44 42 38 38 37 35 33 34 35 34 33 33 33 33 34 34 33 32 31 30 29 29 28 28 28 27 27 27 27 28 30 33 35 34 33 30 26 26 24 19 18 18 18 17 16 15 14 13 12 11 10 9
12 12 12 11 10 9 8 8 9 10 11 13 15 17 19 21 23 24 25 26 25 25 25 26 27 29 31 33 36 37 39 40 41 43 44 44 42 42 41 38 39 40 38 36 36 34 34 34 34 33 32 31 31 31 30 29 29 29 28 28 28 27 28 30 32 34 34 34 33 31 30 28 24 22 21 19 18 16 15 14 12 11 10 10 9
11 10 10 11 11 11 10 10 10 11 12 13 14 16 17 19 21 23 24 26 27 27 27 27 27 28 30 31 34 36 38 40 40 39 41 43 44 45 44 42 43 43 42 41 40 38 36 36 35 34 32 32 32 32 31 30 29 30 30 29 29 28 28 30 31 32 33 33 33 33 32 30 28 25 23 21 19 17 15 13 12 10 10 9 8
10 10 9 10 10 10 11 11 12 12 13 13 13 14 16 18 19 21 23 25 26 27 28 29 29 30 30 31 32 34 36 38 39 39 41 42 43 45 45 42 44 45 42 41 41 40 39 37 36 34 33 33 34 34 32 31 31 31 31 31 30 30 29 30 31 32 32 32 32 32 32 31 29 26 24 23 21 17 16 14 13 11 10 10 9
12 12 12 12 12 12 12 12 13 14 14 14 14 14 15 16 18 20 22 23 25 26 28 29 30 30 32 32 32 33 34 34 35 37 39 41 42 45 45 43 45 46 43 42 42 41 40 39 36 35 35 34 34 35 34 33 32 32 32 32 32 31 31 31 31 31 31 32 32 32 31 30 29 27 25 24 22 19 17 16 14 13 12 12 11
15 15 15 15 14 14 14 14 15 15 15 16 16 16 15 16 17 19 20 22 23 25 27 28 29 30 31 33 34 34 35 34 33 35 36 38 40 43 44 44 45 46 45 44 44 44 43 41 37 37 37 35 34 35 36 34 33 33 33 33 33 33 32 32 31 32 32 32 32 31 30 30 29 27 26 24 23 21 19 17 16 15 15 14 14
17 17 17 16 16 16 16 16 16 16 17 17 18 18 18 17 17 18 18 20 22 24 26 28 29 30 31 32 34 36 36 35 35 34 34 35 37 38 39 41 43 44 45 45 46 47 46 43 41 40 39 37 36 36 36 36 34 34 34 35 35 35 34 33 32 33 33 32 32 32 31 30 29 28 26 25 25 23 21 19 18 17 17 16 16
16 17 18 18 18 18 18 18 18 18 19 19 19 19 20 20 20 20 19 19 20 21 22 25 28 30 30 31 33 35 36 36 36 37 36 35 35 35 36 38 40 41 42 42 46 48 46 44 43 43 41 39 38 36 36 37 36 35 36 36 35 35 35 35 34 34 34 33 33 33 32 30 29 28 27 27 26 25 23 22 20 19 19 19 18
16 17 18 19 19 20 20 20 21 21 21 21 22 22 22 22 22 23 23 22 22 21 20 22 23 26 29 30 32 34 35 36 37 37 37 37 37 35 35 36 37 40 40 40 43 46 44 44 44 42 40 39 39 38 38 38 36 36 37 37 35 35 36 36 36 36 35 35 34 34 33 32 31 30 29 28 28 26 25 24 23 22 22 21 20
15 16 17 18 19 20 20 21 22 22 23 23 24 24 24 24 24 25 25 26 26 25 23 23 22 22 24 26 28 32 33 35 36 36 37 38 39 38 37 36 36 39 41 40 44 47 44 43 44 42 40 39 38 39 39 39 37 37 38 38 37 36 36 37 37 36 36 36 35 34 34 33 33 32 31 30 29 28 27 26 25 24 24 23 22
15 16 17 18 19 20 21 22 22 23 23 24 24 25 25 26 26 26 26 27 28 28 27 27 26 25 25 24 25 26 28 31 34 35 36 37 38 39 39 39 37 39 40 39 45 50 45 43 46 44 41 41 40 40 41 40 38 38 39 39 38 37 37 38 38 37 37 37 36 35 35 34 34 34 33 32 31 30 29 28 27 26 25 24 24
16 16 17 18 19 20 21 23 24 25 25 26 27 28 28 28 28 29 29 29 29 30 30 29 29 29 29 28 27 25 24 26 28 31 34 35 37 38 38 40 40 40 40 39 45 52 49 44 46 45 43 42 41 42 43 41 39 38 39 39 39 39 40 40 39 38 38 38 37 36 35 36 36 35 35 34 33 32 31 30 28 27 26 25 25
17 18 18 19 20 20 21 22 24 25 27 28 29 30 31 32 32 32 32 32 33 33 33 33 31 31 31 32 31 30 27 27 27 26 28 31 34 37 37 38 40 40 39 39 44 51 52 47 46 46 44 43 45 46 45 44 42 40 39 39 40 41 41 40 39 39 38 39 39 37 37 37 37 37 37 36 35 34 33 31 30 29 28 27 26
19 20 21 21 22 23 24 25 26 27 28 29 31 32 34 35 36 36 36 37 37 38 37 37 36 34 34 34 33 33 31 31 31 28 27 27 28 32 35 36 39 39 38 38 42 48 52 50 47 46 45 44 46 48 48 48 46 43 42 41 41 41 41 40 40 39 39 39 39 39 38 38 39 39 39 38 37 36 35 33 32 31 30 28 27
20 21 23 24 26 27 28 29 30 31 33 34 35 36 37 38 40 40 41 41 41 41 41 41 40 39 39 38 37 35 33 34 34 32 31 29 27 28 30 32 36 39 38 37 39 44 50 50 47 47 47 46 46 47 47 48 47 46 45 44 42 41 42 42 41 40 39 40 40 40 39 39 39 40 40 40 39 38 37 35 34 33 31 30 28
22 23 25 27 29 30 32 33 35 36 37 38 39 40 40 41 42 43 43 43 43 44 44 44 44 43 43 43 42 39 37 37 37 36 34 32 31 30 30 29 30 33 36 37 39 42 45 48 49 48 46 47 48 47 45 46 47 47 47 45 44 44 44 44 43 41 40 40 41 41 41 40 40 41 42 42 41 40 39 38 36 35 33 32 30
26 27 28 30 32 34 36 37 39 40 41 42 43 43 43 43 43 43 44 44 44 44 45 46 46 45 45 46 46 44 43 42 41 39 37 36 34 33 33 32 30 29 31 34 38 41 42 46 49 47 45 46 48 48 47 46 46 47 48 48 47 47 47 47 46 43 42 41 42 43 42 42 42 42 42 43 43 43 41 39 38 37 36 34 32
28 30 31 33 35 37 39 41 42 44 44 45 46 46 46 45 45 45 44 44 45 45 45 46 46 47 47 48 48 47 47 46 46 44 42 40 39 37 36 35 33 31 30 31 33 37 42 46 48 46 45 46 46 48 49 48 47 48 48 49 50 50 50 50 49 46 43 42 43 43 44 44 44 44 44 45 45 45 43 41 40 39 38 36 34
29 31 33 35 37 39 41 43 45 46 47 48 49 49 49 48 47 47 46 46 46 47 47 47 47 48 48 49 50 49 49 49 49 48 46 44 43 42 40 38 36 34 34 33 32 34 38 43 47 47 46 45 45 46 48 48 48 50 50 50 52 53 53 52 50 48 45 43 44 45 45 45 45 45 46 47 46 45 45 44 43 42 40 39 36
32 34 35 37 39 41 42 44 46 47 48 50 50 50 49 49 49 49 49 49 49 49 49 49 49 49 49 50 51 51 51 51 50 50 49 48 46 46 44 42 39 37 36 36 35 35 36 40 44 46 46 45 45 44 45 46 50 54 55 53 53 53 52 52 51 48 46 45 46 47 48 48 48 48 48 48 48 47 48 47 46 44 44 41 39
35 36 38 40 42 43 44 45 46 47 48 49 49 48 49 49 50 50 50 50 50 51 51 51 51 51 50 51 51 52 52 51 51 50 50 49 47 48 48 46 43 41 39 38 38 38 38 40 42 44 44 46 46 45 45 48 52 56 56 54 53 53 52 51 51 49 48 48 49 50 51 51 50 50 51 51 50 50 50 50 49 48 47 44 42
37 38 40 42 43 45 46 47 47 47 48 48 47 47 47 49 50 51 52 52 52 53 54 54 55 54 53 52 52 52 52 52 51 50 50 48 47 48 49 48 46 44 42 41 40 40 41 42 43 43 42 45 48 48 48 49 51 52 53 54 55 54 52 52 53 52 51 51 53 55 55 53 52 52 52 53 52 52 53 53 53 52 49 46 45
39 40 42 43 45 46 46 47 48 48 48 48 48 48 49 49 49 50 52 54 55 55 56 56 57 58 57 55 54 53 53 52 52 51 50 49 47 47 48 48 47 46 44 44 44 43 43 44 45 44 44 46 49 48 47 48 47 48 51 53 54 54 54 55 56 56 55 54 55 57 57 55 54 54 54 55 54 55 55 56 55 53 51 49 47
40 41 43 44 45 45 46 47 48 49 50 50 50 51 52 52 51 50 51 54 56 57 58 58 59 60 60 59 57 56 55 54 52 52 51 50 49 47 47 47 48 47 47 47 46 45 45 45 46 47 47 47 48 47 45 46 47 47 49 51 53 55 56 57 59 59 58 55 55 56 57 56 56 56 56 56 56 56 57 57 57 55 53 51 49
42 43 44 44 45 45 46 47 49 50 52 53 53 54 54 54 53 51 51 55 57 58 59 60 60 60 59 59 59 58 57 55 53 51 51 51 50 48 47 47 47 49 49 49 49 48 47 47 48 50 50 49 49 47 45 45 45 46 47 50 53 55 56 58 60 59 57 55 53 54 56 57 57 59 59 57 57 58 58 59 58 57 55 53 51
43 44 44 45 45 46 47 49 50 52 54 54 54 55 54 53 52 50 51 53 55 56 59 59 58 58 58 58 58 59 58 56 54 52 51 51 50 49 48 47 47 48 49 50 51 50 49 49 50 52 51 50 50 49 45 44 45 46 49 50 51 54 56 57 58 56 55 56 55 54 56 58 58 60 61 59 59 58 58 59 59 58 57 55 54
43 44 44 45 46 47 48 50 51 54 55 53 53 53 52 50 48 46 46 49 52 55 59 59 58 57 58 58 58 58 59 58 56 53 51 49 48 48 49 49 50 50 50 51 51 52 52 51 52 54 53 51 50 49 47 46 47 48 49 49 48 49 50 53 55 55 56 59 57 54 57 59 58 60 61 60 60 59 57 58 60 60 59 57 56
43 44 44 45 47 48 49 50 51 55 55 52 51 51 49 46 44 42 42 45 48 52 55 55 54 54 55 54 54 55 56 57 57 53 47 44 44 46 48 50 50 50 51 51 51 52 53 53 53 54 54 53 50 48 47 47 48 48 47 45 44 44 46 50 54 55 56 58 57 56 58 59 58 60 60 59 59 59 59 59 59 61 61 60 58
44 45 45 46 47 48 50 50 50 53 55 52 49 48 45 42 40 39 39 41 43 45 47 48 47 48 49 48 47 47 49 50 51 48 42 39 42 45 48 50 51 52 53 52 51 50 52 53 54 54 55 54 52 49 46 46 48 47 45 44 45 44 46 50 53 54 54 56 58 58 58 59 60 60 58 57 57 57 59 60 60 61 62 62 60
45 45 46 48 48 48 49 49 49 50 53 50 45 44 42 38 35 35 35 37 39 40 42 43 41 42 43 42 39 39 42 43 43 41 37 37 40 44 47 50 52 54 57 56 54 52 50 50 52 54 56 56 54 51 49 46 46 46 46 48 48 46 47 50 54 53 51 53 57 57 56 58 61 59 56 53 53 55 58 60 61 61 62 62 61
45 46 46 48 49 48 47 48 47 46 48 48 43 39 37 33 30 30 32 36 38 38 40 41 40 38 39 39 37 36 38 39 39 37 35 35 38 42 46 48 52 56 58 57 54 51 50 50 51 53 55 57 55 53 51 48 46 46 48 51 51 48 49 53 54 50 46 51 57 56 54 57 58 57 55 52 50 52 56 58 59 60 60 62 62
Wind_Direction
244 244 246 249 254 259 262 265 268 269 270 264 255 254 251 245 237 231 236 240 239 240 241 240 239 240 240 241 242 243 243 244 244 248 254 257 261 264 268 271 274 276 279 282 286 289 291 292 290 288 287 287 280 267 269 241 211 226 240 239 248 249 244 238 222 211 219 214 212 219 223 220 211 204 205 204 202 200 199 197 195 192 192 195 198
248 247 248 252 256 260 263 266 268 270 272 269 260 255 253 249 242 235 238 243 242 241 242 242 242 243 243 243 243 243 244 244 244 247 252 257 260 262 266 269 271 274 276 278 282 284 286 286 286 286 281 278 271 265 268 241 223 235 241 226 231 239 238 235 219 207 221 223 218 218 219 217 207 202 206 206 203 201 200 198 196 197 196 196 197
251 250 252 255 258 261 265 268 270 272 273 273 266 258 253 249 246 239 240 246 247 244 242 242 243 245 246 245 245 246 246 246 246 247 251 256 261 264 267 270 273 275 276 278 279 280 281 281 280 276 269 265 261 261 262 250 241 232 225 223 224 228 220 221 210 207 228 232 228 218 207 211 212 207 208 208 204 205 204 202 203 204 202 203 203
256 254 256 258 261 263 267 270 273 275 276 275 272 265 257 249 245 240 238 242 246 246 243 243 244 245 246 247 247 249 249 249 249 250 251 255 259 263 266 270 272 275 276 278 278 278 278 275 272 271 269 261 256 252 238 246 249 225 222 229 225 232 227 225 217 210 234 240 230 218 205 209 216 212 210 210 206 206 210 209 209 210 210 209 209
264 261 261 262 265 267 271 275 276 277 277 277 276 273 266 254 246 241 237 239 243 246 244 244 245 245 246 247 248 250 251 252 252 253 253 255 259 261 263 266 269 271 274 275 275 277 276 273 274 276 273 263 257 246 226 239 242 222 225 234 227 237 239 236 228 217 231 234 216 208 199 208 216 215 215 214 210 209 213 214 212 214 214 213 214
269 268 266 265 268 271 275 278 279 279 278 278 279 279 276 265 253 244 240 240 243 246 246 246 246 247 247 248 249 250 251 253 254 254 254 256 259 261 262 264 266 267 269 271 272 275 274 275 277 274 267 259 250 237 225 232 238 226 225 234 236 242 252 246 231 218 221 216 206 199 194 214 218 214 219 218 215 214 215 217 217 215 216 217 217
273 273 271 271 272 274 276 278 280 279 279 281 282 283 284 276 262 251 247 244 244 245 247 247 247 248 250 250 250 250 251 253 254 255 255 256 258 260 261 262 264 265 266 269 270 273 274 275 274 268 263 255 244 236 226 223 229 225 220 227 232 232 238 241 229 222 219 212 211 201 195 215 218 213 220 223 219 217 216 215 215 212 213 218 218
276 276 276 276 276 277 278 278 278 279 279 281 282 285 288 283 270 261 257 253 249 247 247 248 248 249 250 250 250 250 251 252 253 254 255 256 258 258 260 261 262 263 264 267 269 270 271 272 271 266 263 254 246 243 235 229 229 225 221 220 226 229 226 225 225 231 227 216 213 211 201 204 207 210 214 219 219 215 216 214 212 214 215 220 220
276 277 278 277 278 279 279 278 278 278 279 279 281 284 288 284 276 272 269 265 259 254 250 249 249 249 249 250 250 249 250 250 251 253 254 255 256 257 258 260 260 261 263 266 267 268 269 270 269 266 263 257 252 250 245 242 239 235 231 224 229 235 230 225 221 226 230 219 209 208 210 212 210 213 217 219 219 214 217 215 212 216 217 218 219
274 277 279 279 278 278 278 278 278 279 279 279 280 282 284 284 281 280 279 275 270 265 260 255 252 249 249 250 250 249 249 249 250 251 252 254 255 257 257 257 257 259 262 264 265 266 268 269 268 266 263 259 255 254 250 246 245 243 239 235 237 235 230 233 225 222 231 227 220 220 225 226 221 221 226 227 222 216 216 212 208 210 212 214 215
268 270 272 275 276 276 277 277 277 277 276 276 278 280 283 284 285 285 284 281 277 273 269 264 258 252 250 249 250 250 249 249 249 249 251 253 255 255 255 256 257 258 260 261 263 265 267 268 268 266 264 260 257 255 251 246 245 245 243 242 241 230 231 241 237 231 236 235 227 226 233 233 228 229 232 229 223 218 214 209 209 210 209 212 210
258 261 264 266 269 270 270 270 273 275 275 275 278 281 283 285 286 286 284 282 279 277 273 269 264 257 253 251 250 250 250 249 249 249 251 252 253 253 254 256 256 256 258 260 261 263 265 266 266 265 263 262 258 256 253 248 246 245 243 242 236 226 231 245 249 241 240 243 238 230 235 236 232 231 229 228 225 222 218 212 214 214 211 213 212
245 250 256 261 265 267 267 267 270 273 276 278 279 280 281 282 283 282 280 278 278 278 276 272 265 259 256 255 253 251 250 249 249 250 251 250 251 252 254 255 255 256 257 258 260 261 263 264 264 265 264 262 260 257 254 251 249 246 243 240 231 225 228 238 249 245 236 238 237 233 241 243 238 235 232 233 231 226 222 217 217 217 215 216 214
244 244 248 251 255 261 265 269 271 273 274 275 277 277 278 279 278 277 277 276 276 276 274 270 265 262 261 259 257 255 252 251 252 252 251 250 251 252 253 254 255 256 257 258 258 259 260 262 263 264 263 261 259 258 256 253 251 249 245 241 234 224 223 230 236 234 228 225 230 241 247 247 248 250 247 244 238 230 225 222 220 220 221 221 220
251 250 251 251 252 252 255 259 265 270 272 272 272 273 274 275 275 276 276 275 273 272 271 270 267 264 261 257 257 259 258 256 255 254 252 252 253 253 253 254 255 256 256 258 258 258 258 260 261 261 261 260 258 257 255 253 251 250 247 243 238 226 219 226 229 228 226 222 234 255 257 258 268 272 266 252 240 234 230 226 223 223 225 225 223
257 256 256 255 255 254 253 253 255 260 266 270 271 270 270 270 272 273 273 272 271 271 271 271 268 263 257 253 253 257 259 259 260 259 257 255 255 254 254 254 254 255 256 257 258 258 258 258 258 258 259 258 258 256 254 252 250 249 247 244 242 233 221 220 224 224 224 225 237 251 258 268 277 280 276 260 242 236 232 227 225 226 228 227 223
257 259 259 259 259 257 256 254 253 252 255 261 266 269 269 269 270 271 271 272 274 274 273 271 269 267 260 253 250 252 257 263 267 267 263 260 259 257 256 255 255 254 255 257 258 258 257 256 256 255 257 257 256 255 253 251 249 247 246 243 241 237 226 219 219 221 221 226 235 240 250 264 271 276 276 267 248 237 233 228 228 228 228 227 221
226 244 252 255 257 259 260 258 255 253 252 253 257 261 265 268 271 272 272 274 276 276 274 272 272 270 265 259 255 254 259 267 273 276 274 270 266 262 260 257 256 255 255 256 256 256 256 255 255 255 255 255 254 254 252 251 249 247 245 243 240 236 230 224 224 225 227 236 244 244 247 255 264 271 272 268 255 241 234 229 230 231 227 226 220
31 350 281 260 254 255 257 260 260 257 255 253 253 255 258 262 265 269 272 273 275 275 275 275 273 270 268 266 262 259 258 261 267 275 281 278 273 270 267 261 257 255 255 255 255 255 255 255 255 254 253 253 252 252 251 249 249 248 245 243 240 236 232 228 228 231 237 249 255 254 252 253 260 270 271 270 260 246 239 231 230 232 226 224 221
29 22 11 346 307 282 267 261 260 261 261 258 255 254 254 254 256 260 265 267 270 272 274 274 271 270 270 270 268 264 261 259 260 265 271 276 274 272 270 268 263 259 258 258 257 256 257 256 256 254 253 252 251 250 249 248 247 247 246 244 241 238 234 230 231 234 241 251 252 251 256 257 259 268 271 270 262 249 242 234 229 228 223 222 220
33 28 24 17 0 337 313 291 274 268 266 265 262 259 255 253 252 253 256 258 261 265 269 269 269 270 271 271 270 269 266 263 260 260 262 268 272 271 270 270 268 265 263 262 261 260 259 257 255 253 252 250 250 248 247 247 247 246 245 244 242 240 236 233 234 238 243 249 249 250 258 261 261 267 269 269 262 250 243 237 231 226 220 220 221
38 32 26 22 16 7 350 329 311 296 285 278 273 269 264 259 256 253 253 254 255 258 262 264 265 267 268 269 270 269 269 266 263 261 262 264 267 269 270 270 270 269 269 268 267 265 261 258 256 254 252 250 248 246 246 245 246 246 245 244 243 242 240 237 238 241 244 247 250 253 259 262 263 266 267 266 262 254 245 241 238 235 227 223 222
40 34 27 22 16 12 7 357 344 330 317 304 292 283 277 271 266 261 257 255 254 255 257 259 261 262 263 265 267 268 269 269 268 267 266 266 267 269 270 271 272 273 273 272 270 267 263 260 258 257 256 253 249 246 245 245 245 245 244 243 244 243 242 241 241 242 245 247 249 252 256 259 261 263 263 262 260 252 244 240 239 241 237 230 229
32 29 26 22 15 9 5 1 356 350 343 333 316 300 290 282 276 272 267 263 260 258 257 257 258 259 260 261 264 267 268 269 271 270 269 269 270 271 272 273 273 274 274 274 272 270 267 263 260 259 257 254 250 247 246 245 244 244 243 242 244 244 243 243 242 243 246 248 249 250 253 255 257 258 257 257 253 243 235 235 233 234 237 236 236
22 22 20 17 11 6 1 358 355 351 349 345 339 326 311 299 290 283 276 271 268 265 262 260 258 258 258 258 260 263 266 268 270 271 271 271 270 270 272 272 272 273 274 273 272 271 268 265 263 262 259 254 250 247 246 246 244 243 242 242 244 244 244 244 244 244 245 248 250 249 250 252 253 253 252 250 247 237 229 228 227 225 229 233 234
18 18 18 14 9 6 1 358 354 351 348 345 343 341 334 324 313 302 292 283 275 271 268 265 263 260 259 257 257 257 260 263 266 268 270 271 270 270 272 272 272 272 272 272 271 269 267 266 265 264 262 259 253 247 246 246 245 244 242 242 244 244 244 244 244 245 245 247 249 249 248 248 248 248 246 244 241 235 228 224 222 221 224 226 228
14 12 11 8 6 4 0 357 354 351 349 347 344 342 339 337 332 324 316 305 292 282 276 271 268 265 262 261 260 258 258 258 260 262 266 269 270 271 272 272 272 271 271 270 269 268 268 268 266 264 263 262 258 252 249 248 247 245 243 242 242 244 244 244 245 245 245 245 247 248 246 244 244 243 242 239 235 233 229 225 224 223 224 225 226
9 7 5 3 1 359 357 355 353 350 348 347 345 343 340 338 336 333 331 325 315 306 294 284 278 273 269 265 263 262 261 260 259 259 260 262 266 269 269 269 269 270 271 269 268 267 268 267 266 264 263 262 261 258 254 251 248 247 246 243 243 244 245 245 245 245 244 243 244 245 243 241 240 239 239 236 232 231 230 230 230 229 228 230 232
2 0 359 358 356 354 353 352 350 349 347 345 342 341 339 338 336 334 332 329 326 325 319 307 297 289 281 275 270 267 265 263 262 260 259 259 260 263 265 265 267 268 268 268 268 267 267 267 266 265 264 263 262 260 257 254 252 251 250 248 246 245 246 245 244 244 244 242 242 242 241 238 236 235 235 234 231 230 231 233 234 234 234 235 237
354 352 350 349 348 347 347 346 346 345 344 342 340 339 337 335 334 333 331 328 325 325 324 320 317 310 302 293 284 277 272 268 265 263 261 260 259 259 260 262 263 265 266 268 269 268 267 266 266 265 265 263 262 261 260 258 256 254 254 253 250 247 247 246 245 243 243 242 240 240 240 237 234 233 232 231 231 231 232 235 236 236 237 238 239
345 343 341 339 339 338 338 337 337 337 337 336 335 334 333 332 330 329 328 326 323 322 322 320 319 317 314 310 304 296 288 279 273 268 264 262 260 259 259 259 259 261 264 267 270 269 267 266 266 265 265 264 263 262 262 260 259 257 256 256 253 249 247 247 245 243 241 241 239 238 238 236 233 232 231 230 230 231 233 236 238 238 239 240 240
341 339 338 336 335 334 334 333 332 332 331 331 330 328 327 327 326 325 324 322 319 318 317 316 316 316 313 312 310 309 306 297 288 280 273 267 263 260 259 259 258 259 261 265 267 267 266 266 267 266 265 264 263 262 261 260 259 257 257 257 255 251 247 247 246 243 240 239 238 236 235 234 232 231 231 230 229 231 234 236 238 240 241 242 242
338 338 337 337 335 334 332 331 330 329 328 327 326 325 323 323 322 321 320 318 316 315 314 312 312 311 310 309 308 308 309 306 302 296 288 279 272 266 261 259 258 258 260 262 264 266 266 265 265 266 265 263 261 260 260 260 258 257 256 256 255 252 249 247 247 245 241 239 237 235 233 233 231 230 230 230 230 231 233 235 236 239 241 242 243
335 335 335 333 333 331 330 329 328 326 325 323 322 321 320 319 318 317 316 314 313 311 310 309 308 307 305 304 303 304 305 304 302 302 300 294 286 277 270 264 261 259 259 261 263 266 267 265 264 264 263 262 261 260 260 260 260 259 257 256 255 253 251 248 246 245 243 240 238 235 233 231 230 229 230 230 230 232 233 234 235 237 239 240 242
331 331 330 329 328 327 327 326 325 324 322 321 320 318 317 316 314 313 312 311 309 307 305 304 304 303 302 300 299 299 300 299 299 299 299 298 296 290 283 276 269 265 262 260 262 264 266 267 265 263 262 261 261 260 261 262 262 261 258 256 254 253 252 248 245 244 244 241 239 237 234 231 229 228 229 229 230 232 233 234 234 235 237 238 239
327 327 326 325 325 324 324 323 322 321 320 319 318 316 315 313 311 310 309 307 305 304 302 301 299 298 297 296 296 296 295 294 293 294 295 296 296 294 292 288 282 276 270 265 262 263 266 268 266 263 262 260 260 260 261 261 261 260 258 256 254 252 250 248 245 244 243 242 239 238 236 233 230 229 228 229 230 231 232 233 234 235 235 237 237
324 324 323 323 322 322 321 321 320 319 318 317 316 314 313 310 308 306 305 303 301 300 298 297 296 295 294 292 291 292 292 291 289 289 290 291 292 292 292 291 290 287 282 274 267 264 264 265 265 265 264 261 259 258 258 259 259 258 257 255 253 251 249 247 244 242 242 241 240 238 237 235 232 230 228 229 229 230 231 232 233 234 235 235 236
321 321 321 321 321 321 320 320 319 318 316 315 314 312 310 308 305 303 301 299 297 296 294 293 292 292 291 290 289 288 289 288 287 287 287 288 288 288 288 289 290 290 287 282 275 270 266 264 264 265 265 262 260 257 255 256 257 257 256 255 252 249 246 245 243 241 240 241 241 240 239 237 233 230 229 229 229 230 230 232 233 234 235 235 236
318 318 318 318 319 319 318 318 317 316 315 314 313 311 309 307 306 304 301 298 296 294 292 290 289 288 288 287 287 287 287 286 286 286 286 285 285 284 284 285 287 287 286 284 281 276 271 267 265 264 264 263 262 259 256 256 256 256 256 255 252 248 245 244 243 242 241 241 242 241 240 239 236 232 230 229 229 230 230 232 232 233 235 235 236
316 316 317 317 317 316 316 315 314 314 313 313 312 311 309 309 308 306 304 301 298 296 292 290 287 286 285 284 284 285 285 285 285 284 284 284 284 283 281 282 283 283 284 283 282 279 276 272 269 266 264 263 263 261 257 254 252 251 250 249 249 248 246 245 244 243 242 242 243 242 240 238 236 234 232 230 229 229 230 231 232 233 234 235 236
315 316 317 316 316 315 314 313 312 312 311 311 310 309 309 308 307 306 304 302 300 298 295 292 289 286 284 282 281 281 282 283 283 283 282 282 282 281 280 280 281 280 280 280 280 279 276 274 272 269 264 262 261 260 257 252 250 249 249 248 249 248 247 245 245 244 243 243 243 242 240 238 236 234 233 231 229 228 229 231 231 232 233 234 235
314 315 315 315 315 314 313 312 312 311 310 309 308 306 305 304 304 303 301 300 298 297 295 293 290 288 285 283 280 279 279 279 281 281 280 280 279 279 279 279 279 278 278 277 276 275 274 272 271 269 265 261 260 258 256 255 253 252 251 250 250 249 246 244 244 243 243 243 243 242 240 238 236 236 235 233 231 229 229 231 232 232 232 233 235
313 314 314 314 314 313 312 311 311 309 308 308 307 305 303 302 300 299 297 295 294 293 292 291 290 288 287 284 282 280 278 277 276 277 279 279 278 277 276 276 276 275 274 273 272 272 271 270 270 268 264 263 263 259 256 257 255 253 252 251 250 249 246 244 244 243 241 240 241 243 242 239 237 237 237 236 233 230 230 232 233 233 232 233 235
312 312 312 312 312 311 310 309 309 308 308 307 306 305 303 302 299 297 295 292 290 288 287 287 286 286 286 285 283 281 279 277 276 275 276 277 278 277 275 274 273 272 271 270 269 268 267 267 267 267 264 264 265 261 256 256 255 254 253 251 249 248 246 245 246 246 245 242 241 243 245 243 239 238 238 238 236 233 232 232 234 235 234 233 234
310 311 311 311 311 310 309 309 308 308 308 308 306 305 303 301 299 297 294 291 289 287 284 282 282 282 282 283 282 281 280 278 277 275 274 275 276 277 277 275 272 270 269 268 266 265 264 264 264 264 264 264 264 262 259 257 255 254 252 250 248 247 245 245 247 248 247 245 244 245 247 246 243 241 241 240 238 235 233 233 233 234 234 234 234
310 310 311 310 310 310 309 309 308 308 308 307 306 305 303 301 300 298 294 291 288 286 283 282 281 280 280 280 281 281 280 279 277 276 275 274 275 276 277 276 273 270 268 267 266 264 262 260 260 262 264 263 263 264 263 259 256 255 253 251 249 248 247 249 250 248 248 249 247 246 248 247 245 244 243 241 239 237 236 235 234 234 234 234 234
309 309 310 310 310 310 309 308 308 309 309 308 307 305 304 303 302 298 294 290 287 285 284 283 282 281 281 281 281 281 280 280 279 278 277 276 276 275 275 275 273 272 268 266 265 264 263 261 260 261 263 263 264 265 264 260 257 256 256 255 254 253 253 254 252 248 247 248 246 243 245 247 245 244 245 244 241 239 238 237 235 233 234 234 233
309 308 309 309 309 309 310 310 310 310 309 309 308 307 306 305 303 298 294 291 289 288 287 286 285 284 283 283 283 282 282 281 281 280 279 278 276 274 272 271 272 272 270 267 264 263 262 262 262 262 263 263 264 264 264 261 258 256 256 256 255 252 250 249 247 245 244 244 242 240 242 245 245 245 246 246 243 241 239 238 236 234 233 233 233
308 308 309 310 310 310 311 312 312 311 310 310 310 308 306 304 303 300 297 295 292 291 291 291 290 289 287 286 286 286 285 284 284 284 282 279 275 272 270 269 268 268 268 267 266 263 262 262 262 263 262 262 262 262 261 260 257 255 252 250 248 245 241 241 242 243 241 241 241 240 239 242 244 245 246 245 244 243 241 239 237 234 232 232 232
308 309 311 311 312 312 313 314 314 312 310 310 310 307 304 304 304 301 299 296 294 294 294 294 293 292 292 292 291 290 288 287 287 287 286 281 276 273 270 269 268 267 265 265 266 265 263 262 262 261 261 261 260 260 259 257 255 252 248 247 247 243 239 239 241 242 241 241 242 240 237 239 242 242 242 242 241 241 240 239 237 234 231 230 230
309 311 312 313 313 314 315 315 315 313 311 310 309 307 306 307 307 302 298 295 293 291 292 292 292 292 292 292 292 291 290 290 290 290 288 284 280 276 272 269 268 266 264 264 267 268 266 263 261 260 260 260 259 259 258 256 254 251 247 246 246 242 239 240 241 240 239 241 243 239 235 237 239 237 236 236 234 236 238 237 236 234 230 228 228
Height
1545 1546 1546 1547 1548 1548 1549 1549 1550 1551 1552 1553 1554 1554 1555 1556 1556 1557 1557 1557 1558 1558 1559 1559 1560 1560 1560 1560 1561 1561 1561 1561 1562 1561 1561 1561 1561 1560 1560 1559 1559 1559 1558 1558 1557 1557 1557 1557 1556 1556 1556 1555 1555 1555 1555 1555 1555 1555 1554 1554 1553 1552 1552 1552 1552 1553 1553 1553 1553 1553 1552 1552 1553 1553 1553 1553 1553 1554 1554 1555 1555 1556 1556 1556 1557
1544 1545 1545 1546 1547 1547 1548 1548 1549 1550 1551 1552 1553 1553 1554 1554 1555 1556 1556 1556 1557 1557 1557 1558 1558 1558 1559 1559 1560 1560 1560 1560 1561 1561 1560 1560 1560 1560 1559 1559 1559 1558 1558 1557 1557 1557 1556 1556 1556 1556 1555 1555 1555 1555 1555 1555 1554 1554 1553 1553 1553 1552 1552 1551 1552 1552 1552 1551 1551 1551 1552 1552 1552 1552 1552 1552 1552 1553 1553 1554 1554 1554 1555 1555 1555
1542 1543 1544 1545 1545 1546 1547 1547 1548 1549 1549 1550 1551 1552 1552 1553 1554 1554 1555 1555 1555 1555 1556 1556 1557 1557 1557 1558 1558 1558 1559 1559 1559 1559 1559 1559 1559 1559 1559 1558 1558 1558 1557 1557 1556 1556 1555 1555 1555 1555 1555 1554 1554 1554 1554 1554 1553 1554 1553 1553 1552 1552 1551 1551 1551 1552 1551 1550 1550 1551 1551 1551 1551 1551 1551 1551 1551 1552 1552 1552 1552 1553 1553 1553 1553
1540 1541 1542 1543 1544 1545 1545 1546 1546 1547 1548 1549 1549 1550 1551 1551 1552 1552 1553 1553 1553 1553 1554 1554 1555 1555 1556 1556 1557 1557 1557 1558 1558 1558 1558 1558 1558 1558 1558 1557 1557 1557 1556 1556 1555 1555 1555 1554 1554 1554 1554 1554 1554 1554 1554 1554 1553 1553 1553 1552 1552 1551 1551 1551 1551 1551 1550 1549 1549 1549 1550 1550 1550 1549 1550 1550 1550 1550 1551 1551 1551 1551 1551 1551 1552
1539 1540 1541 1541 1542 1543 1544 1544 1545 1546 1546 1547 1548 1548 1549 1549 1549 1550 1551 1551 1551 1551 1552 1553 1553 1553 1554 1554 1555 1555 1555 1556 1556 1557 1557 1557 1557 1557 1556 1556 1556 1555 1555 1555 1554 1554 1554 1553 1553 1553 1553 1553 1553 1553 1554 1553 1553 1553 1553 1552 1552 1551 1550 1549 1550 1550 1550 1549 1549 1549 1549 1549 1549 1549 1549 1548 1549 1549 1549 1549 1550 1550 1550 1550 1550
1537 1538 1539 1540 1541 1541 1542 1543 1543 1544 1545 1545 1546 1546 1547 1547 1547 1548 1548 1549 1549 1550 1550 1551 1551 1552 1552 1552 1553 1553 1554 1554 1555 1555 1555 1555 1555 1555 1555 1555 1554 1554 1554 1554 1553 1553 1552 1552 1552 1552 1551 1551 1551 1551 1552 1553 1552 1552 1553 1553 1552 1551 1549 1549 1549 1549 1549 1549 1549 1549 1549 1548 1548 1548 1547 1547 1547 1548 1548 1548 1548 1549 1549 1549 1549
1535 1536 1537 1538 1539 1540 1541 1542 1542 1543 1543 1544 1544 1544 1545 1546 1546 1546 1546 1547 1548 1548 1549 1549 1549 1550 1550 1551 1551 1551 1552 1552 1553 1553 1553 1554 1554 1554 1553 1553 1553 1553 1553 1552 1552 1551 1551 1551 1551 1550 1550 1550 1550 1550 1550 1551 1551 1551 1552 1552 1551 1550 1550 1549 1548 1548 1549 1549 1548 1548 1548 1547 1547 1547 1547 1546 1546 1546 1547 1547 1547 1548 1548 1548 1548
1534 1534 1535 1536 1537 1538 1539 1540 1541 1541 1542 1542 1542 1543 1543 1544 1544 1544 1545 1546 1546 1546 1547 1547 1547 1548 1548 1549 1549 1549 1550 1550 1550 1551 1551 1552 1552 1552 1552 1552 1552 1551 1551 1551 1550 1550 1549 1549 1549 1549 1549 1548 1548 1548 1548 1549 1549 1549 1550 1550 1550 1549 1549 1549 1548 1548 1547 1547 1547 1547 1546 1546 1546 1546 1545 1545 1545 1545 1545 1546 1546 1546 1547 1547 1547
1532 1533 1534 1534 1535 1536 1537 1538 1539 1539 1540 1541 1541 1541 1541 1542 1542 1543 1543 1544 1544 1545 1545 1545 1545 1546 1546 1546 1547 1547 1547 1547 1548 1548 1549 1549 1549 1549 1550 1550 1550 1550 1549 1549 1549 1548 1548 1547 1547 1547 1547 1547 1546 1546 1547 1547 1547 1548 1548 1548 1548 1548 1548 1547 1547 1547 1546 1545 1545 1545 1545 1544 1544 1543 1543 1543 1543 1544 1544 1544 1544 1545 1545 1545 1546
1531 1532 1532 1533 1533 1534 1535 1536 1537 1538 1538 1539 1539 1540 1539 1540 1540 1540 1541 1541 1542 1543 1543 1543 1543 1543 1543 1543 1544 1544 1544 1545 1545 1546 1546 1546 1546 1547 1547 1547 1547 1548 1547 1547 1547 1546 1546 1546 1545 1545 1545 1545 1544 1544 1545 1545 1546 1546 1546 1546 1546 1547 1547 1545 1545 1545 1544 1543 1543 1543 1543 1542 1542 1542 1541 1542 1542 1542 1542 1542 1543 1543 1544 1544 1544
1530 1530 1531 1531 1532 1533 1534 1534 1535 1536 1536 1537 1537 1538 1538 1538 1538 1538 1539 1539 1540 1540 1541 1541 1541 1541 1541 1541 1541 1541 1542 1542 1542 1542 1543 1543 1544 1544 1544 1545 1545 1545 1545 1545 1544 1544 1544 1544 1543 1543 1543 1543 1543 1543 1543 1543 1543 1544 1544 1545 1545 1546 1545 1544 1544 1544 1542 1542 1542 1542 1541 1540 1540 1540 1540 1540 1540 1541 1541 1541 1542 1542 1543 1543 1543
1528 1529 1529 1530 1530 1531 1532 1532 1533 1533 1534 1534 1535 1536 1537 1537 1537 1537 1537 1537 1538 1538 1539 1539 1539 1539 1538 1538 1538 1539 1539 1539 1539 1539 1540 1540 1540 1540 1541 1542 1542 1542 1542 1542 1542 1542 1541 1541 1541 1541 1541 1541 1541 1541 1541 1541 1541 1541 1542 1542 1543 1544 1544 1543 1542 1542 1541 1541 1541 1540 1539 1539 1539 1539 1539 1539 1539 1539 1539 1540 1541 1541 1541 1542 1542
1526 1526 1527 1528 1528 1529 1529 1530 1531 1531 1532 1532 1533 1534 1534 1535 1535 1535 1535 1535 1536 1537 1537 1538 1537 1536 1536 1536 1536 1536 1535 1535 1536 1537 1537 1537 1536 1537 1539 1539 1539 1540 1540 1540 1540 1539 1539 1539 1539 1539 1539 1538 1538 1538 1538 1539 1539 1539 1539 1540 1541 1542 1543 1542 1541 1540 1540 1539 1539 1539 1538 1538 1537 1537 1537 1537 1537 1537 1538 1538 1539 1539 1539 1540 1540
1524 1524 1525 1525 1526 1526 1527 1528 1529 1529 1530 1530 1530 1531 1532 1533 1533 1533 1533 1533 1534 1535 1535 1536 1535 1535 1535 1534 1533 1533 1532 1532 1533 1533 1533 1533 1533 1534 1535 1536 1536 1537 1537 1537 1537 1537 1537 1537 1537 1537 1537 1536 1536 1536 1536 1536 1536 1536 1537 1537 1538 1539 1541 1541 1540 1539 1538 1538 1537 1537 1537 1537 1537 1537 1536 1536 1536 1536 1536 1536 1537 1537 1537 1538 1538
1523 1523 1524 1524 1524 1524 1525 1525 1526 1527 1527 1528 1528 1529 1530 1531 1531 1532 1532 1531 1532 1533 1533 1533 1534 1534 1535 1533 1531 1530 1529 1529 1529 1529 1529 1530 1531 1531 1532 1533 1533 1534 1534 1534 1534 1535 1535 1534 1534 1534 1534 1534 1534 1534 1534 1534 1534 1534 1534 1535 1535 1536 1538 1539 1538 1537 1537 1536 1536 1535 1536 1536 1536 1536 1535 1535 1535 1535 1535 1535 1535 1536 1536 1536 1536
1522 1523 1523 1523 1523 1523 1523 1524 1524 1524 1525 1526 1526 1527 1528 1528 1529 1529 1530 1529 1530 1530 1531 1531 1532 1533 1533 1531 1530 1529 1526 1526 1526 1526 1527 1527 1527 1528 1529 1529 1530 1530 1530 1531 1531 1532 1532 1532 1532 1532 1532 1532 1532 1532 1532 1532 1532 1532 1532 1532 1533 1533 1535 1536 1536 1536 1535 1534 1533 1534 1534 1534 1534 1534 1534 1533 1533 1533 1534 1534 1534 1534 1534 1534 1535
1521 1521 1521 1522 1522 1522 1522 1522 1523 1523 1523 1523 1524 1525 1525 1526 1526 1527 1527 1527 1528 1528 1529 1529 1529 1531 1530 1529 1529 1527 1524 1524 1524 1523 1523 1524 1524 1525 1525 1526 1526 1527 1527 1528 1528 1529 1529 1529 1529 1529 1529 1529 1529 1529 1529 1529 1530 1530 1530 1530 1531 1531 1531 1532 1533 1533 1533 1532 1531 1532 1531 1532 1532 1532 1532 1532 1532 1532 1532 1532 1532 1532 1533 1533 1534
1519 1519 1519 1520 1520 1520 1520 1521 1521 1521 1521 1522 1522 1522 1523 1523 1524 1524 1525 1525 1526 1526 1526 1527 1528 1528 1528 1527 1527 1526 1524 1524 1523 1521 1520 1520 1521 1522 1522 1522 1523 1523 1523 1524 1525 1525 1525 1526 1526 1527 1527 1527 1526 1526 1526 1526 1527 1527 1528 1528 1529 1529 1529 1530 1530 1530 1530 1529 1529 1530 1530 1529 1530 1530 1530 1530 1530 1530 1530 1531 1531 1531 1531 1531 1532
1518 1518 1518 1518 1518 1518 1519 1519 1519 1519 1519 1520 1520 1520 1521 1521 1521 1521 1522 1523 1523 1523 1523 1525 1525 1524 1525 1525 1525 1524 1524 1524 1523 1521 1519 1517 1518 1519 1519 1519 1519 1518 1519 1520 1521 1521 1522 1523 1523 1524 1524 1524 1524 1524 1524 1524 1524 1524 1525 1525 1526 1526 1527 1527 1528 1527 1527 1527 1527 1528 1528 1527 1527 1528 1528 1528 1528 1528 1528 1529 1529 1529 1529 1529 1530
1518 1519 1519 1519 1518 1518 1518 1518 1518 1518 1517 1518 1518 1518 1518 1518 1519 1519 1519 1520 1520 1520 1520 1522 1522 1522 1523 1523 1522 1523 1523 1522 1522 1521 1519 1515 1515 1516 1516 1517 1516 1515 1517 1517 1518 1518 1519 1519 1520 1520 1521 1521 1521 1521 1521 1521 1521 1521 1522 1522 1523 1524 1524 1525 1525 1525 1525 1525 1526 1526 1526 1526 1525 1526 1526 1526 1526 1526 1526 1526 1527 1527 1528 1528 1528
1518 1518 1518 1518 1518 1518 1518 1517 1517 1516 1516 1516 1516 1516 1516 1516 1516 1516 1516 1516 1517 1517 1517 1518 1519 1519 1520 1520 1520 1520 1520 1520 1520 1520 1518 1515 1512 1512 1514 1514 1512 1513 1515 1515 1515 1516 1516 1516 1516 1517 1517 1518 1518 1518 1518 1518 1518 1518 1519 1519 1520 1520 1521 1522 1522 1522 1522 1523 1524 1524 1524 1524 1524 1524 1524 1525 1524 1524 1524 1524 1525 1525 1526 1526 1526
1517 1517 1517 1517 1517 1517 1517 1517 1517 1516 1515 1515 1514 1514 1514 1513 1513 1513 1513 1513 1514 1514 1514 1514 1515 1516 1516 1517 1516 1516 1516 1516 1516 1517 1517 1514 1511 1509 1511 1511 1509 1509 1512 1512 1512 1513 1512 1512 1512 1513 1514 1514 1515 1515 1515 1515 1515 1516 1516 1516 1516 1517 1518 1518 1519 1519 1520 1520 1521 1522 1522 1522 1523 1523 1523 1523 1523 1522 1523 1523 1523 1523 1524 1524 1525
1518 1517 1517 1517 1516 1516 1516 1516 1516 1515 1515 1514 1513 1513 1512 1512 1512 1511 1511 1511 1511 1511 1511 1511 1511 1512 1512 1513 1512 1513 1513 1511 1512 1514 1514 1512 1510 1507 1508 1509 1506 1506 1508 1508 1508 1508 1508 1509 1509 1509 1510 1511 1511 1511 1511 1512 1512 1512 1513 1513 1513 1514 1514 1515 1516 1516 1516 1517 1518 1519 1520 1520 1521 1521 1521 1521 1521 1521 1521 1521 1521 1521 1522 1522 1523
1519 1518 1517 1517 1516 1516 1515 1515 1514 1514 1513 1513 1512 1512 1511 1511 1510 1510 1509 1509 1508 1508 1508 1508 1508 1508 1508 1508 1508 1508 1508 1508 1509 1510 1509 1509 1508 1505 1504 1506 1503 1501 1504 1504 1503 1503 1504 1504 1505 1506 1507 1507 1507 1507 1508 1508 1509 1509 1509 1510 1510 1510 1511 1511 1512 1513 1513 1514 1515 1516 1517 1517 1518 1519 1520 1520 1520 1520 1519 1519 1519 1520 1520 1520 1521
1519 1518 1517 1516 1516 1515 1515 1514 1514 1513 1512 1512 1511 1510 1509 1509 1508 1508 1507 1507 1506 1506 1505 1505 1505 1505 1504 1504 1504 1504 1504 1505 1505 1505 1505 1506 1505 1501 1501 1503 1500 1497 1499 1499 1498 1498 1498 1499 1501 1502 1502 1503 1504 1504 1504 1504 1505 1506 1506 1506 1507 1507 1507 1508 1508 1509 1510 1511 1512 1512 1513 1514 1515 1516 1517 1517 1518 1518 1518 1518 1518 1518 1518 1518 1518
1519 1518 1517 1517 1516 1515 1515 1514 1513 1513 1512 1511 1510 1509 1508 1508 1507 1506 1506 1505 1504 1503 1503 1502 1502 1502 1501 1501 1500 1500 1500 1501 1501 1501 1501 1501 1501 1499 1499 1498 1496 1494 1494 1494 1493 1492 1492 1495 1498 1498 1498 1499 1500 1500 1500 1500 1501 1502 1503 1503 1503 1504 1504 1504 1505 1505 1506 1507 1508 1509 1510 1511 1512 1513 1514 1515 1515 1516 1516 1516 1516 1516 1516 1516 1516
1519 1518 1517 1517 1516 1515 1515 1514 1513 1512 1511 1510 1510 1509 1508 1507 1506 1505 1504 1503 1502 1501 1501 1500 1499 1499 1498 1497 1497 1496 1496 1497 1497 1496 1497 1497 1496 1497 1497 1495 1492 1490 1489 1489 1487 1485 1486 1491 1493 1493 1494 1495 1495 1496 1496 1497 1498 1498 1499 1499 1499 1500 1500 1501 1501 1501 1501 1503 1504 1505 1506 1507 1508 1510 1511 1512 1513 1513 1513 1513 1514 1514 1514 1513 1514
1519 1518 1517 1516 1515 1515 1514 1513 1513 1512 1511 1510 1509 1508 1507 1506 1505 1504 1503 1502 1500 1500 1499 1498 1497 1496 1495 1494 1493 1492 1492 1492 1492 1492 1492 1492 1492 1493 1494 1493 1490 1487 1484 1483 1480 1479 1482 1485 1486 1487 1489 1491 1491 1492 1493 1493 1493 1494 1494 1494 1495 1496 1497 1497 1497 1497 1497 1498 1500 1500 1501 1503 1504 1506 1507 1509 1509 1510 1510 1511 1511 1511 1511 1511 1511
1518 1517 1516 1515 1514 1514 1513 1512 1512 1511 1510 1509 1508 1507 1506 1505 1504 1503 1502 1501 1499 1499 1497 1496 1495 1494 1492 1491 1490 1489 1489 1488 1488 1488 1488 1488 1488 1488 1488 1489 1489 1486 1481 1478 1474 1473 1477 1479 1479 1481 1484 1486 1487 1488 1488 1488 1490 1490 1489 1490 1491 1492 1493 1493 1493 1494 1494 1494 1495 1496 1497 1498 1499 1501 1503 1505 1506 1507 1508 1508 1509 1509 1509 1509 1509
1518 1517 1516 1514 1513 1513 1512 1511 1510 1509 1509 1508 1507 1506 1505 1504 1503 1502 1501 1499 1498 1497 1496 1494 1493 1491 1489 1488 1487 1486 1485 1485 1484 1483 1483 1483 1483 1483 1483 1484 1485 1483 1479 1476 1470 1468 1472 1474 1474 1476 1479 1481 1482 1483 1483 1484 1486 1486 1485 1486 1487 1488 1489 1489 1489 1490 1490 1491 1492 1492 1493 1494 1495 1496 1498 1500 1502 1503 1505 1505 1506 1506 1506 1506 1506
1516 1515 1514 1513 1512 1511 1510 1509 1508 1508 1507 1506 1505 1504 1503 1502 1501 1500 1499 1498 1496 1495 1494 1493 1491 1489 1487 1485 1484 1483 1483 1482 1481 1479 1479 1478 1477 1478 1478 1478 1479 1478 1477 1476 1468 1462 1466 1469 1468 1471 1474 1475 1477 1477 1477 1479 1481 1481 1481 1481 1482 1483 1484 1483 1484 1486 1486 1487 1488 1488 1489 1490 1491 1492 1493 1495 1497 1499 1501 1502 1502 1503 1503 1504 1504
1515 1514 1513 1512 1511 1510 1509 1508 1507 1506 1505 1504 1503 1501 1500 1499 1498 1497 1496 1495 1494 1492 1491 1490 1488 1487 1484 1482 1481 1480 1479 1478 1477 1476 1475 1474 1473 1472 1472 1472 1473 1473 1473 1473 1465 1457 1460 1465 1464 1466 1469 1470 1471 1471 1471 1473 1476 1476 1476 1476 1477 1478 1478 1478 1479 1481 1481 1482 1483 1484 1485 1486 1487 1488 1489 1490 1492 1494 1496 1498 1499 1500 1500 1501 1501
1513 1512 1511 1510 1509 1509 1508 1507 1506 1505 1503 1502 1501 1499 1498 1497 1496 1494 1493 1492 1490 1489 1488 1486 1486 1484 1482 1480 1478 1477 1476 1474 1473 1473 1472 1471 1470 1468 1468 1467 1466 1467 1468 1468 1462 1455 1454 1459 1460 1461 1463 1465 1464 1464 1465 1467 1469 1471 1471 1472 1472 1472 1472 1474 1475 1475 1476 1478 1479 1480 1481 1482 1483 1484 1485 1486 1488 1490 1491 1493 1494 1495 1496 1498 1498
1511 1510 1509 1508 1507 1507 1506 1505 1504 1503 1502 1501 1500 1498 1496 1494 1492 1491 1490 1488 1486 1485 1484 1482 1482 1481 1479 1477 1475 1474 1473 1471 1469 1469 1468 1467 1466 1464 1463 1462 1460 1461 1462 1462 1459 1453 1449 1451 1455 1455 1457 1458 1458 1458 1460 1461 1463 1466 1466 1466 1466 1467 1468 1468 1469 1470 1471 1472 1474 1475 1476 1477 1479 1480 1481 1483 1484 1486 1487 1489 1490 1491 1492 1493 1495
1509 1508 1507 1506 1505 1504 1503 1502 1501 1500 1499 1497 1496 1495 1493 1491 1489 1487 1486 1484 1482 1481 1479 1478 1477 1476 1475 1473 1471 1471 1470 1467 1465 1465 1464 1463 1462 1460 1458 1458 1456 1455 1456 1457 1455 1451 1446 1446 1448 1449 1451 1452 1452 1452 1454 1455 1458 1460 1460 1460 1461 1462 1462 1462 1463 1465 1466 1467 1468 1470 1471 1473 1474 1476 1477 1478 1480 1482 1484 1485 1486 1486 1487 1489 1490
1507 1506 1505 1504 1502 1501 1499 1498 1497 1496 1494 1492 1491 1490 1488 1487 1484 1483 1481 1480 1478 1476 1474 1473 1472 1471 1469 1467 1466 1465 1465 1463 1460 1460 1460 1459 1458 1457 1454 1453 1452 1450 1451 1451 1450 1447 1444 1441 1441 1443 1445 1446 1446 1447 1449 1450 1451 1452 1453 1454 1455 1456 1456 1456 1457 1459 1461 1462 1463 1465 1466 1468 1469 1471 1472 1474 1475 1477 1479 1481 1482 1483 1484 1484 1486
1504 1503 1502 1500 1499 1497 1496 1494 1492 1491 1489 1488 1486 1484 1483 1481 1479 1477 1476 1474 1473 1471 1469 1468 1466 1465 1463 1461 1460 1459 1458 1456 1455 1454 1455 1454 1453 1452 1450 1449 1448 1446 1445 1445 1444 1443 1441 1436 1434 1436 1439 1440 1440 1442 1443 1444 1444 1445 1446 1447 1448 1449 1450 1450 1451 1453 1455 1457 1458 1459 1461 1463 1464 1466 1467 1469 1470 1472 1474 1476 1478 1479 1480 1481 1481
1501 1500 1498 1497 1495 1493 1491 1489 1487 1486 1484 1482 1480 1478 1477 1475 1473 1472 1470 1468 1466 1465 1463 1462 1460 1459 1457 1455 1453 1453 1451 1450 1448 1448 1448 1448 1448 1447 1446 1444 1443 1442 1440 1439 1439 1438 1436 1432 1430 1431 1432 1432 1434 1436 1437 1438 1438 1439 1439 1440 1441 1442 1442 1443 1444 1447 1449 1451 1452 1453 1455 1457 1458 1460 1462 1463 1465 1467 1469 1471 1473 1475 1476 1477 1478
1499 1497 1495 1494 1492 1490 1487 1485 1483 1481 1479 1477 1475 1472 1470 1468 1466 1464 1463 1461 1459 1458 1456 1455 1454 1452 1450 1449 1447 1446 1445 1443 1442 1442 1442 1442 1442 1441 1440 1440 1439 1438 1436 1434 1433 1432 1430 1428 1426 1425 1425 1426 1428 1429 1431 1433 1434 1432 1432 1432 1432 1433 1435 1437 1439 1442 1444 1446 1446 1447 1449 1451 1453 1455 1456 1458 1459 1462 1464 1465 1468 1469 1471 1472 1474
1495 1493 1491 1489 1488 1486 1484 1482 1479 1477 1474 1472 1469 1466 1463 1461 1459 1457 1455 1453 1451 1450 1449 1447 1446 1445 1443 1442 1440 1438 1438 1437 1436 1436 1436 1436 1435 1434 1434 1434 1434 1433 1431 1429 1428 1427 1425 1423 1420 1420 1420 1420 1421 1422 1425 1427 1426 1423 1422 1423 1424 1426 1429 1432 1434 1437 1439 1440 1441 1441 1442 1444 1446 1448 1450 1452 1454 1456 1458 1459 1462 1464 1465 1467 1470
1491 1489 1486 1484 1482 1480 1479 1476 1475 1472 1470 1468 1465 1462 1458 1455 1453 1450 1448 1446 1444 1442 1440 1438 1438 1437 1436 1434 1433 1432 1431 1430 1429 1429 1429 1429 1428 1426 1426 1427 1427 1426 1425 1424 1423 1422 1420 1418 1415 1414 1414 1413 1413 1415 1417 1417 1416 1416 1418 1419 1419 1420 1423 1426 1428 1431 1433 1434 1434 1434 1434 1436 1439 1441 1443 1445 1447 1449 1451 1453 1455 1457 1459 1462 1465
1486 1484 1482 1479 1477 1474 1472 1470 1468 1466 1464 1462 1460 1458 1455 1452 1448 1445 1442 1439 1437 1434 1431 1429 1428 1427 1427 1426 1425 1424 1423 1422 1421 1420 1420 1420 1420 1419 1418 1419 1419 1419 1418 1417 1417 1416 1415 1413 1410 1410 1409 1407 1406 1408 1409 1410 1412 1415 1416 1416 1415 1416 1418 1419 1420 1423 1425 1427 1426 1426 1427 1430 1432 1435 1436 1438 1440 1443 1444 1446 1447 1450 1453 1457 1459
1482 1479 1477 1474 1472 1469 1466 1463 1461 1459 1457 1456 1454 1451 1449 1447 1444 1440 1436 1433 1430 1427 1424 1421 1419 1417 1416 1416 1416 1415 1415 1414 1413 1412 1411 1411 1411 1411 1410 1411 1411 1412 1412 1411 1410 1410 1409 1407 1405 1405 1404 1401 1400 1402 1403 1405 1408 1409 1410 1410 1411 1412 1411 1410 1410 1412 1415 1418 1419 1419 1422 1425 1427 1428 1429 1431 1433 1436 1437 1439 1441 1445 1448 1451 1453
1476 1474 1472 1469 1466 1464 1461 1458 1455 1453 1451 1449 1446 1444 1441 1439 1437 1434 1430 1427 1423 1421 1418 1415 1411 1409 1406 1405 1405 1405 1405 1405 1404 1404 1402 1402 1401 1402 1402 1402 1403 1404 1404 1404 1403 1403 1403 1402 1400 1399 1398 1396 1395 1397 1399 1399 1401 1403 1404 1405 1405 1404 1404 1403 1402 1403 1406 1412 1415 1416 1417 1420 1422 1422 1422 1423 1426 1429 1431 1433 1436 1439 1442 1445 1448
1471 1468 1466 1463 1461 1458 1455 1452 1449 1446 1444 1441 1438 1436 1433 1431 1429 1426 1422 1419 1415 1412 1409 1407 1404 1401 1399 1396 1394 1394 1394 1395 1395 1395 1394 1394 1393 1393 1394 1394 1394 1394 1395 1396 1396 1396 1396 1396 1394 1391 1391 1392 1390 1391 1394 1395 1396 1397 1397 1398 1398 1398 1398 1397 1396 1398 1402 1407 1411 1412 1412 1414 1415 1415 1414 1416 1419 1422 1425 1428 1431 1434 1437 1440 1443
1466 1463 1460 1457 1455 1452 1449 1445 1442 1439 1437 1434 1431 1428 1425 1423 1421 1418 1414 1410 1406 1402 1399 1397 1396 1393 1392 1390 1386 1384 1384 1385 1386 1387 1387 1387 1386 1386 1386 1385 1385 1385 1386 1386 1387 1388 1389 1389 1387 1384 1384 1387 1386 1386 1389 1391 1390 1390 1390 1390 1392 1393 1393 1392 1394 1397 1398 1399 1404 1407 1405 1405 1408 1407 1406 1409 1412 1415 1418 1422 1425 1428 1431 1433 1436
1460 1457 1455 1451 1449 1446 1443 1439 1435 1432 1430 1427 1424 1421 1418 1415 1413 1410 1406 1401 1397 1393 1390 1389 1388 1386 1384 1383 1380 1378 1376 1376 1377 1379 1379 1380 1379 1379 1378 1377 1376 1376 1376 1377 1379 1380 1380 1381 1381 1378 1378 1380 1381 1382 1384 1385 1384 1384 1385 1386 1388 1389 1390 1391 1391 1392 1391 1390 1395 1398 1397 1396 1400 1399 1399 1403 1407 1409 1412 1415 1418 1421 1424 1427 1430
1455 1452 1449 1446 1443 1439 1436 1433 1428 1425 1422 1419 1416 1413 1411 1408 1405 1402 1398 1394 1390 1385 1382 1380 1379 1378 1377 1375 1373 1371 1369 1368 1370 1371 1373 1374 1373 1371 1370 1369 1368 1367 1367 1367 1369 1371 1372 1373 1373 1372 1371 1373 1375 1376 1378 1379 1379 1379 1381 1382 1383 1384 1385 1384 1382 1382 1383 1382 1385 1388 1389 1389 1392 1393 1394 1398 1401 1403 1405 1408 1410 1414 1417 1420 1423
1449 1446 1443 1440 1436 1432 1429 1426 1421 1417 1414 1412 1410 1407 1404 1402 1399 1395 1392 1387 1383 1379 1376 1374 1373 1370 1369 1369 1368 1366 1363 1362 1362 1364 1367 1368 1366 1364 1362 1360 1360 1359 1357 1358 1360 1361 1363 1364 1365 1365 1364 1365 1368 1369 1371 1373 1373 1375 1376 1375 1375 1377 1377 1375 1373 1374 1375 1375 1376 1380 1382 1383 1385 1387 1390 1393 1394 1396 1398 1400 1403 1407 1410 1413 1416
1443 1440 1436 1432 1429 1426 1422 1419 1415 1411 1407 1405 1404 1401 1399 1397 1393 1390 1386 1382 1378 1375 1371 1369 1368 1366 1363 1363 1363 1362 1359 1357 1357 1358 1360 1361 1359 1357 1355 1354 1352 1350 1348 1350 1352 1353 1355 1356 1356 1357 1356 1356 1359 1361 1362 1364 1366 1368 1368 1366 1367 1370 1370 1368 1366 1368 1370 1369 1369 1372 1375 1375 1377 1381 1385 1387 1388 1388 1390 1392 1395 1399 1403 1406 1409
1437 1433 1429 1425 1421 1418 1415 1412 1409 1406 1402 1400 1399 1396 1393 1391 1388 1385 1382 1378 1374 1371 1368 1365 1363 1362 1360 1358 1358 1358 1355 1353 1353 1354 1354 1355 1353 1351 1349 1348 1344 1340 1340 1343 1345 1346 1347 1348 1347 1348 1347 1347 1350 1352 1353 1355 1357 1359 1359 1358 1360 1363 1362 1360 1361 1364 1365 1361 1360 1364 1368 1369 1371 1374 1378 1380 1380 1380 1382 1385 1387 1391 1396 1399 1402